[[{"header":{"parameterUnit":"m.s-1","parameterCategory":1,"la1":30.2991,"la2":30.254,"lo1":-89.0895,"lo2":-89.0444,"dy":0.0017,"dx":0.0017,"nx":28,"ny":28,"refTime":"2024-06-08T21:00:00:Z","depth":0,"parameterNumber":2,"parameterNumberName":"U-component_of_WINDS"},"data":[0,0,0,0,0,0,0,0,0,0,0,0,0,0,0,0,0,0,0,0,0,0,0,0,0,0,0,0,0,0,0,0,0,0,0,0,0,0,0,0,0,0,0,0,0,0,0,0,0,0,0,0,0,0,0,0,0,0,1.6881,1.6882,0,1.6997,1.6998,1.7,1.7014,1.7013,1.7012,1.701,1.7131,1.7135,1.7139,0,0,0,0,0,0,0,0,0,0,0,0,0,1.6672,1.6676,1.6881,1.6883,1.6884,1.6997,1.6999,1.7,1.7014,1.7013,1.7011,1.701,1.7129,1.7134,1.7139,0,0,0,0,0,0,0,0,0,0,0,0,0,1.6773,1.6677,1.6881,1.6904,1.6908,1.6997,1.6999,1.7001,1.7014,1.7013,1.7011,1.7009,1.7128,1.7134,1.714,1.7214,0,0,1.716,1.7162,0,0,0,0,0,0,0,0,1.6767,1.6781,1.69,1.6903,1.6907,1.6989,1.6969,1.7072,1.7015,1.6974,1.701,1.7008,1.7085,1.7095,1.712,1.722,1.7225,1.716,1.7164,1.7167,1.7169,0,0,0,0,0,0,0,1.676,1.6776,1.6927,1.6901,1.6906,1.6909,1.6922,1.6989,1.7038,1.6977,1.6979,1.6992,1.7087,1.7114,1.7123,1.7226,1.716,1.7166,1.717,1.7172,1.7391,1.7393,0,0,0,0,0,0,1.6749,1.677,1.6923,1.6931,1.6831,1.6915,1.6928,1.6965,1.7037,1.7046,1.6993,1.6992,1.7104,1.7116,1.7128,1.7219,1.7167,1.7173,1.7177,1.7389,1.7392,1.7394,0,0,0,0,0,0,1.6744,1.6762,1.6919,1.6851,1.6871,1.692,1.696,1.6968,1.6995,1.7049,1.7058,1.7012,1.7103,1.7119,1.7192,1.7223,1.7176,1.7182,1.7387,1.739,1.7393,1.7402,0,0,0,0,0,0,1.6738,1.676,1.6789,1.6851,1.6874,1.6981,1.6962,1.6971,1.7006,1.7006,1.7069,1.7078,1.7103,1.7182,1.7198,1.7231,1.7187,1.7384,1.7388,1.7392,1.7399,1.7404,1.7409,0,0,0,0,0,1.673,1.6787,1.679,1.6809,1.6911,1.6983,1.6996,1.7023,1.7008,1.7038,1.7072,1.7076,1.7217,1.719,1.7208,1.7243,1.7383,1.7387,1.7392,1.7396,1.7403,1.7409,0,0,0,0,0,0,1.6729,1.6796,1.68,1.6879,1.6925,1.6985,1.7023,1.703,1.7082,1.7079,1.7111,1.7125,1.7197,1.7227,1.7196,1.7318,1.7298,1.7307,1.7296,1.7303,1.7308,1.73,1.7192,0,0,0,0,0,1.6737,1.679,1.6846,1.691,1.6933,1.6974,1.7006,1.7023,1.7072,1.7092,1.7132,1.718,1.7234,1.727,1.7324,1.7403,1.7417,1.7435,1.7441,1.7445,1.7452,1.7496,1.7505,1.7408,1.7408,1.7408,0,0,1.6756,1.6799,1.6831,1.691,1.6948,1.7002,1.699,1.7048,1.7088,1.7101,1.7173,1.7203,1.7259,1.7335,1.7371,1.7362,1.7481,1.745,1.7453,1.7459,1.7501,1.751,1.7518,1.7411,1.7411,1.741,0,0,1.6818,1.6856,1.6913,1.6951,1.7007,1.7034,1.7047,1.7107,1.7127,1.7199,1.721,1.7258,1.7352,1.7391,1.7423,1.7498,1.7504,1.7514,1.7543,1.7585,1.7592,1.7599,1.7626,1.7635,1.7521,1.7521,1.7521,0,1.6834,1.6916,1.6942,1.6999,1.7034,1.7046,1.7104,1.714,1.7211,1.7235,1.7224,1.7342,1.738,1.7466,1.7484,1.7509,1.7526,1.7508,1.7589,1.7596,1.7603,1.7629,1.7639,1.7522,1.7522,1.7522,1.7522,0,1.6933,1.6989,1.7028,1.7096,1.7135,1.7193,1.7228,1.7264,1.7276,1.7304,1.7377,1.7423,1.7486,1.7507,1.752,1.7594,1.7587,1.7582,1.7564,1.7613,1.7638,1.7648,1.7523,1.7523,1.7523,1.7522,0,0,1.6999,1.7079,1.7093,1.7124,1.7187,1.7231,1.7288,1.7349,1.738,1.7428,1.7477,1.7555,1.7551,1.7587,1.7605,1.7641,1.7698,1.7632,1.7634,1.7643,1.7782,1.7786,1.7797,1.7701,1.7703,1.7705,1.7778,0,1.7068,1.7171,1.7196,1.7284,1.7336,1.7347,1.7397,1.7441,1.7468,1.7516,1.7546,1.7601,1.7591,1.7613,1.7649,1.7683,1.7726,1.7678,1.7748,1.775,1.7735,1.781,1.7815,1.7882,1.7787,1.7789,1.779,0,1.7164,1.7214,1.7307,1.7362,1.7384,1.7429,1.7486,1.7532,1.7581,1.7598,1.7638,1.7651,1.7712,1.7688,1.7772,1.7738,1.7768,1.7789,1.7792,1.78,1.7774,1.7822,1.7904,1.7914,1.7806,1.7805,1.7804,0,1.7203,1.7293,1.7361,1.7386,1.7452,1.7483,1.7512,1.756,1.7594,1.7644,1.7667,1.7723,1.7754,1.7797,1.7825,1.7806,1.7906,1.7886,1.7923,1.7922,1.7945,1.7943,1.8033,1.7962,1.7962,1.7962,1.7961,0,1.7279,1.7336,1.7379,1.7421,1.7484,1.7511,1.7573,1.7602,1.7644,1.7692,1.7705,1.7749,1.7783,1.7832,1.7854,1.7919,1.7933,1.7949,1.7954,1.7948,1.7946,1.7969,1.7966,1.7964,1.7964,1.7963,1.7963,0,1.7335,1.7366,1.744,1.7495,1.7511,1.7555,1.7603,1.7643,1.7669,1.7729,1.7745,1.7786,1.7844,1.7876,1.7949,1.7964,1.8037,1.804,1.802,1.8023,1.8058,1.8055,1.8167,1.8184,1.81,1.8101,1.8102,0,1.7382,1.7425,1.7485,1.7517,1.7547,1.7599,1.7633,1.7661,1.7697,1.7756,1.7789,1.7848,1.7896,1.7988,1.8025,1.808,1.8085,1.812,1.8094,1.8086,1.8086,1.8084,1.8088,1.8126,1.8126,1.8127,1.8128,0,1.7462,1.7475,1.7524,1.7579,1.762,1.7665,1.7709,1.7735,1.777,1.7809,1.7868,1.7906,1.7979,1.8037,1.8095,1.8125,1.8132,1.8135,1.8147,1.8142,1.8129,1.8137,1.8034,1.8133,1.8133,1.8132,1.8132,1.8132,1.7515,1.7554,1.7602,1.7657,1.7693,1.7733,1.7774,1.7805,1.7854,1.7916,1.7929,1.7991,1.8039,1.8117,1.8148,1.8198,1.8191,1.8208,1.8212,1.8216,1.8217,1.812,1.8208,1.8208,1.8208,1.8208,1.8208,0,1.7597,1.7627,1.7677,1.7738,1.7781,1.7783,1.7831,1.7867,1.7922,1.7965,1.8012,1.8079,1.8135,1.8175,1.8232,1.8263,1.8268,1.8277,1.8276,1.8283,1.822,1.8205,1.8273,1.8273,1.8273,1.8273,1.8273,1.8273,1.7644,1.771,1.7729,1.7812,1.7843,1.7903,1.7931,1.7968,1.8003,1.8077,1.8123,1.8149,1.8191,1.8251,1.8302,1.8312,1.8333,1.8342,1.8353,1.8294,1.8287,1.8281,1.8266,1.8346,1.8346,1.8412,1.8413,1.8413]},{"header":{"parameterUnit":"m.s-1","parameterCategory":1,"la1":30.2991,"la2":30.254,"lo1":-89.0895,"lo2":-89.0444,"dy":0.0017,"dx":0.0017,"nx":28,"ny":28,"refTime":"2024-06-08T21:00:00:Z","depth":0,"parameterNumber":3,"parameterNumberName":"V-component_of_WINDS"},"data":[0,0,0,0,0,0,0,0,0,0,0,0,0,0,0,0,0,0,0,0,0,0,0,0,0,0,0,0,0,0,0,0,0,0,0,0,0,0,0,0,0,0,0,0,0,0,0,0,0,0,0,0,0,0,0,0,0,0,0.331,0.3309,0,0.3302,0.3302,0.3302,0.3288,0.3288,0.3288,0.3288,0.328,0.328,0.328,0,0,0,0,0,0,0,0,0,0,0,0,0,0.3313,0.3313,0.331,0.3309,0.3309,0.3302,0.3302,0.3302,0.3288,0.3288,0.3288,0.3288,0.328,0.328,0.328,0,0,0,0,0,0,0,0,0,0,0,0,0,0.3309,0.3313,0.331,0.3302,0.3301,0.3302,0.3302,0.3302,0.3289,0.3288,0.3288,0.3287,0.328,0.328,0.328,0.3288,0,0,0.328,0.328,0,0,0,0,0,0,0,0,0.3309,0.3309,0.3303,0.3302,0.3302,0.3296,0.33,0.3297,0.3289,0.3293,0.3288,0.3287,0.3285,0.3285,0.3284,0.3287,0.3287,0.328,0.328,0.328,0.328,0,0,0,0,0,0,0,0.331,0.3309,0.3306,0.3303,0.3302,0.3299,0.3298,0.3299,0.3292,0.3293,0.3292,0.3291,0.3285,0.3284,0.3284,0.3287,0.328,0.328,0.328,0.328,0.3295,0.3295,0,0,0,0,0,0,0.3311,0.331,0.3307,0.3306,0.3305,0.3299,0.3298,0.3298,0.3292,0.329,0.3291,0.3291,0.3285,0.3284,0.3284,0.3292,0.328,0.328,0.328,0.3295,0.3295,0.3295,0,0,0,0,0,0,0.3311,0.3311,0.3307,0.3308,0.3307,0.3299,0.3299,0.3298,0.3297,0.329,0.3289,0.3292,0.3284,0.3284,0.3287,0.3291,0.328,0.328,0.3294,0.3295,0.3295,0.3309,0,0,0,0,0,0,0.3311,0.3311,0.3314,0.3308,0.3307,0.331,0.33,0.3298,0.3297,0.3296,0.3291,0.329,0.3284,0.3287,0.3287,0.3291,0.328,0.3294,0.3294,0.3295,0.3308,0.3309,0.3311,0,0,0,0,0,0.3312,0.3318,0.3314,0.3314,0.331,0.331,0.331,0.3303,0.3298,0.3301,0.3296,0.329,0.3291,0.3287,0.3287,0.3292,0.3293,0.3294,0.3295,0.3307,0.3309,0.3311,0,0,0,0,0,0,0.3325,0.3317,0.3313,0.3317,0.3315,0.3308,0.3311,0.3306,0.3304,0.3303,0.3295,0.3294,0.3298,0.3295,0.3291,0.3299,0.3291,0.3292,0.33,0.3302,0.3304,0.3304,0.328,0,0,0,0,0,0.3328,0.3329,0.3322,0.3327,0.3326,0.3319,0.3319,0.3314,0.331,0.3309,0.3305,0.3302,0.3302,0.3302,0.3301,0.3307,0.3306,0.331,0.3312,0.3314,0.3314,0.3317,0.3319,0.3298,0.3298,0.3298,0,0,0.3336,0.3331,0.3332,0.333,0.3327,0.3328,0.3318,0.3319,0.332,0.331,0.3312,0.3309,0.3305,0.3309,0.3311,0.3307,0.332,0.3315,0.3316,0.3316,0.3318,0.332,0.3322,0.3299,0.3299,0.3299,0,0,0.3349,0.3346,0.3349,0.3347,0.3343,0.3338,0.3339,0.3334,0.3331,0.3333,0.3325,0.3326,0.3326,0.3323,0.3322,0.3335,0.3329,0.3335,0.3344,0.3346,0.3348,0.3349,0.3354,0.3355,0.3336,0.3336,0.3336,0,0.3358,0.3359,0.3352,0.3354,0.3353,0.3343,0.3347,0.3345,0.3341,0.334,0.3336,0.3335,0.3332,0.3336,0.3339,0.3338,0.3339,0.3335,0.3348,0.335,0.3351,0.3355,0.3356,0.3336,0.3336,0.3336,0.3336,0,0.3371,0.3372,0.3375,0.3372,0.3371,0.3374,0.3367,0.3367,0.3362,0.3358,0.336,0.3356,0.3354,0.3355,0.335,0.3358,0.3355,0.335,0.3342,0.3354,0.3357,0.3359,0.3337,0.3337,0.3337,0.3337,0,0,0.3393,0.3385,0.3386,0.3384,0.3379,0.338,0.3382,0.338,0.338,0.3378,0.338,0.338,0.3374,0.3373,0.3368,0.337,0.338,0.3364,0.3364,0.3367,0.3388,0.3392,0.3394,0.3376,0.3377,0.3377,0.3388,0,0.3405,0.3408,0.3402,0.3406,0.3407,0.3398,0.34,0.3397,0.3393,0.3393,0.3389,0.3389,0.3382,0.3381,0.3383,0.3379,0.3384,0.3378,0.3378,0.3378,0.3379,0.3396,0.34,0.3411,0.339,0.339,0.339,0,0.342,0.3418,0.3423,0.3417,0.3417,0.3419,0.3417,0.3417,0.3413,0.341,0.3409,0.3403,0.3404,0.3397,0.3399,0.3395,0.3395,0.3392,0.3393,0.3392,0.3384,0.3396,0.3414,0.3416,0.3392,0.3392,0.3392,0,0.3434,0.3433,0.3436,0.3435,0.3428,0.343,0.3427,0.3423,0.3423,0.3421,0.342,0.3419,0.3418,0.3417,0.341,0.3406,0.3413,0.3406,0.3411,0.3411,0.3413,0.3412,0.3431,0.3413,0.3413,0.3413,0.3413,0,0.3449,0.3452,0.3443,0.3444,0.3448,0.344,0.3444,0.344,0.3437,0.3438,0.343,0.3431,0.3423,0.3423,0.3418,0.342,0.342,0.3417,0.3416,0.3418,0.3418,0.3417,0.3416,0.3413,0.3413,0.3413,0.3413,0,0.3466,0.346,0.3462,0.3456,0.3454,0.3457,0.3452,0.3453,0.3449,0.345,0.345,0.3443,0.3442,0.3436,0.3434,0.3431,0.3435,0.3432,0.3436,0.3435,0.3441,0.344,0.3459,0.3461,0.3442,0.3442,0.3442,0,0.3475,0.3477,0.3471,0.3471,0.3469,0.3469,0.3468,0.3461,0.3461,0.3457,0.3459,0.3457,0.3456,0.3456,0.3451,0.3449,0.3446,0.3453,0.3446,0.3448,0.3446,0.3446,0.3446,0.3455,0.3455,0.3455,0.3455,0,0.3492,0.3489,0.3488,0.3486,0.3486,0.3484,0.3482,0.3482,0.3474,0.3474,0.3473,0.3472,0.3471,0.347,0.3467,0.3464,0.3459,0.3458,0.3459,0.3461,0.3463,0.3461,0.344,0.3457,0.3457,0.3457,0.3457,0.3457,0.3506,0.3507,0.3503,0.3502,0.35,0.3498,0.3499,0.3495,0.3494,0.3492,0.3488,0.3488,0.3484,0.348,0.3478,0.3478,0.3474,0.3476,0.3476,0.3477,0.3478,0.3463,0.3477,0.3477,0.3477,0.3477,0.3477,0,0.3522,0.3519,0.3519,0.3516,0.3515,0.351,0.3507,0.3507,0.3507,0.3504,0.3503,0.3502,0.3501,0.3496,0.3494,0.3495,0.3492,0.3495,0.3494,0.3494,0.3481,0.348,0.3497,0.3497,0.3497,0.3497,0.3497,0.3497,0.353,0.3533,0.3529,0.353,0.3527,0.3527,0.3526,0.3524,0.3522,0.3521,0.352,0.3517,0.3513,0.3511,0.351,0.3508,0.3508,0.3511,0.3509,0.3497,0.3495,0.3493,0.3492,0.3511,0.3511,0.3522,0.3522,0.3522]}]]